| time (UTC) | temp F | wind direction | speed MPH | gust MPH | rain 1hr in | rain 24hr in | rain mn in | humidity % | barometer mb |
| 20260507231535 | 82 | 153 | 8.0 | 13.0 | 0.00 | 0.24 | 0.24 | 86 | 206.0 |
| 20260507230034 | 83 | 149 | 8.0 | 12.0 | 0.00 | 0.24 | 0.24 | 87 | 206.0 |
| 20260507224541 | 84 | 139 | 7.0 | 11.0 | 0.00 | 0.24 | 0.24 | 86 | 206.0 |
| 20260507223041 | 83 | 141 | 7.0 | 12.0 | 0.00 | 0.24 | 0.24 | 84 | 206.0 |
| 20260507221536 | 84 | 152 | 8.0 | 13.0 | 0.00 | 0.24 | 0.24 | 83 | 206.0 |
| 20260507220044 | 86 | 131 | 8.0 | 13.0 | 0.00 | 0.24 | 0.24 | 79 | 206.0 |
| 20260507214602 | 86 | 149 | 10.0 | 13.0 | 0.00 | 0.24 | 0.24 | 78 | 206.0 |
| 20260507213041 | 87 | 155 | 8.0 | 12.0 | 0.00 | 0.24 | 0.24 | 77 | 206.0 |
| 20260507211536 | 87 | 153 | 10.0 | 13.0 | 0.00 | 0.24 | 0.24 | 77 | 206.0 |
| 20260507210048 | 87 | 160 | 10.0 | 13.0 | 0.00 | 0.24 | 0.24 | 77 | 206.0 |
| 20260507204535 | 86 | 150 | 10.0 | 13.0 | 0.00 | 0.24 | 0.24 | 79 | 206.0 |
| 20260507203051 | 85 | 155 | 9.0 | 13.0 | 0.00 | 0.24 | 0.24 | 80 | 206.0 |
| 20260507201545 | 85 | 124 | 9.0 | 12.0 | 0.00 | 0.24 | 0.24 | 82 | 206.0 |
| 20260507200039 | 84 | 160 | 9.0 | 12.0 | 0.00 | 0.24 | 0.24 | 82 | 206.0 |
| 20260507194613 | 85 | 146 | 9.0 | 12.0 | 0.00 | 0.24 | 0.24 | 81 | 206.0 |
| 20260507193042 | 85 | 146 | 9.0 | 12.0 | 0.00 | 0.24 | 0.24 | 83 | 206.0 |
| 20260507191544 | 85 | 139 | 10.0 | 12.0 | 0.00 | 0.24 | 0.24 | 81 | 206.0 |
| 20260507190040 | 85 | 150 | 10.0 | 13.0 | 0.00 | 0.24 | 0.24 | 82 | 206.0 |
| 20260507184544 | 85 | 157 | 9.0 | 13.0 | 0.00 | 0.24 | 0.24 | 82 | 206.0 |
| 20260507183042 | 85 | 165 | 10.0 | 14.0 | 0.00 | 0.24 | 0.24 | 80 | 206.0 |
| 20260507181543 | 85 | 154 | 10.0 | 13.0 | 0.00 | 0.24 | 0.24 | 81 | 206.0 |
| 20260507180041 | 85 | 160 | 10.0 | 14.0 | 0.00 | 0.24 | 0.24 | 82 | 206.0 |
| 20260507174543 | 85 | 125 | 11.0 | 14.0 | 0.00 | 0.24 | 0.24 | 80 | 206.0 |
| 20260507173046 | 86 | 150 | 10.0 | 14.0 | 0.00 | 0.24 | 0.24 | 79 | 206.0 |
| 20260507171550 | 86 | 155 | 11.0 | 15.0 | 0.00 | 0.24 | 0.24 | 79 | 206.0 |
| 20260507170042 | 86 | 141 | 11.0 | 17.0 | 0.00 | 0.24 | 0.24 | 79 | 206.0 |
| 20260507164542 | 86 | 212 | 11.0 | 17.0 | 0.00 | 0.24 | 0.24 | 77 | 206.0 |
| 20260507163041 | 85 | 195 | 12.0 | 16.0 | 0.00 | 0.24 | 0.24 | 79 | 206.0 |
| 20260507161539 | 85 | 164 | 12.0 | 16.0 | 0.00 | 0.24 | 0.24 | 79 | 206.0 |
| 20260507160036 | 85 | 155 | 13.0 | 16.0 | 0.00 | 0.24 | 0.24 | 79 | 206.0 |
| 20260507154541 | 84 | 161 | 13.0 | 16.0 | 0.00 | 0.24 | 0.24 | 81 | 206.0 |
| 20260507153045 | 84 | 138 | 14.0 | 16.0 | 0.00 | 0.24 | 0.24 | 80 | 206.0 |
| 20260507151540 | 84 | 159 | 12.0 | 17.0 | 0.00 | 0.24 | 0.24 | 81 | 206.0 |
| 20260507150040 | 85 | 160 | 12.0 | 16.0 | 0.00 | 0.24 | 0.24 | 81 | 206.0 |
| 20260507144544 | 84 | 151 | 13.0 | 16.0 | 0.00 | 0.24 | 0.24 | 84 | 206.0 |
| 20260507143043 | 83 | 145 | 12.0 | 16.0 | 0.00 | 0.24 | 0.24 | 85 | 206.0 |
| 20260507141543 | 84 | 153 | 13.0 | 16.0 | 0.00 | 0.24 | 0.24 | 85 | 206.0 |
| 20260507140040 | 83 | 153 | 13.0 | 16.0 | 0.00 | 0.24 | 0.24 | 85 | 206.0 |
| 20260507134538 | 83 | 164 | 13.0 | 16.0 | 0.00 | 0.24 | 0.24 | 86 | 206.0 |
| 20260507133047 | 82 | 162 | 11.0 | 15.0 | 0.00 | 0.24 | 0.24 | 88 | 206.0 |
| 20260507131601 | 82 | 143 | 11.0 | 14.0 | 0.00 | 0.24 | 0.24 | 87 | 206.0 |
| 20260507130043 | 81 | 120 | 13.0 | 16.0 | 0.12 | 0.24 | 0.24 | 89 | 206.0 |
| 20260507124543 | 80 | 108 | 12.0 | 17.0 | 0.24 | 0.24 | 0.24 | 91 | 206.0 |
| 20260507123043 | 80 | 127 | 14.0 | 19.0 | 0.24 | 0.24 | 0.24 | 93 | 206.0 |
| 20260507121545 | 79 | 120 | 6.0 | 14.0 | 0.24 | 0.24 | 0.24 | 94 | 206.0 |
| 20260507120043 | 79 | 115 | 5.0 | 13.0 | 0.10 | 0.10 | 0.10 | 91 | 206.0 |
| 20260507114545 | 81 | 113 | 11.0 | 16.0 | 0.00 | 0.00 | 0.00 | 88 | 206.0 |
| 20260507113040 | 81 | 124 | 11.0 | 16.0 | 0.00 | 0.00 | 0.00 | 88 | 206.0 |
| 20260507111539 | 81 | 96 | 13.0 | 18.0 | 0.00 | 0.00 | 0.00 | 88 | 206.0 |
| 20260507110037 | 81 | 117 | 14.0 | 19.0 | 0.00 | 0.00 | 0.00 | 89 | 206.0 |
| 20260507104544 | 80 | 97 | 13.0 | 19.0 | 0.00 | 0.00 | 0.00 | 90 | 206.0 |
| 20260507103042 | 80 | 120 | 12.0 | 18.0 | 0.00 | 0.00 | 0.00 | 90 | 206.0 |
| 20260507101540 | 80 | 105 | 11.0 | 17.0 | 0.00 | 0.00 | 0.00 | 91 | 206.0 |
| 20260507100036 | 80 | 114 | 12.0 | 16.0 | 0.00 | 0.00 | 0.00 | 90 | 206.0 |
| 20260507094544 | 80 | 112 | 12.0 | 16.0 | 0.00 | 0.00 | 0.00 | 90 | 206.0 |
| 20260507093048 | 80 | 97 | 13.0 | 17.0 | 0.00 | 0.00 | 0.00 | 91 | 206.0 |
| 20260507091541 | 80 | 105 | 13.0 | 16.0 | 0.00 | 0.00 | 0.00 | 90 | 206.0 |
| 20260507090040 | 80 | 103 | 13.0 | 19.0 | 0.00 | 0.00 | 0.00 | 90 | 206.0 |
| 20260507084547 | 80 | 110 | 13.0 | 18.0 | 0.00 | 0.00 | 0.00 | 90 | 206.0 |
| 20260507083036 | 80 | 107 | 14.0 | 19.0 | 0.00 | 0.00 | 0.00 | 89 | 206.0 |
| 20260507081541 | 80 | 112 | 15.0 | 18.0 | 0.00 | 0.00 | 0.00 | 90 | 206.0 |
| 20260507080042 | 80 | 120 | 15.0 | 20.0 | 0.00 | 0.00 | 0.00 | 92 | 206.0 |
| 20260507074541 | 80 | 120 | 14.0 | 18.0 | 0.00 | 0.00 | 0.00 | 91 | 206.0 |
| 20260507073039 | 80 | 119 | 14.0 | 18.0 | 0.00 | 0.00 | 0.00 | 92 | 206.0 |
| 20260507071603 | 80 | 99 | 14.0 | 18.0 | 0.00 | 0.00 | 0.00 | 92 | 206.0 |
| 20260507070045 | 80 | 102 | 14.0 | 18.0 | 0.00 | 0.00 | 0.00 | 90 | 206.0 |
| 20260507064543 | 80 | 118 | 14.0 | 19.0 | 0.00 | 0.00 | 0.00 | 89 | 206.0 |
| 20260507063045 | 80 | 101 | 14.0 | 20.0 | 0.00 | 0.00 | 0.00 | 90 | 206.0 |
| 20260507061535 | 80 | 103 | 15.0 | 19.0 | 0.00 | 0.00 | 0.00 | 90 | 206.0 |
| 20260507060038 | 80 | 110 | 14.0 | 19.0 | 0.00 | 0.00 | 0.00 | 90 | 206.0 |
| 20260507054542 | 80 | 109 | 13.0 | 19.0 | 0.00 | 0.00 | 0.00 | 89 | 206.0 |
| 20260507053109 | 80 | 105 | 13.0 | 20.0 | 0.00 | 0.00 | 0.00 | 90 | 206.0 |
| 20260507051544 | 80 | 117 | 14.0 | 18.0 | 0.00 | 0.00 | 0.00 | 90 | 206.0 |
| 20260507050044 | 80 | 116 | 13.0 | 18.0 | 0.00 | 0.00 | 0.00 | 90 | 206.0 |
| 20260507044544 | 80 | 110 | 13.0 | 18.0 | 0.00 | 0.00 | 0.00 | 91 | 206.0 |
| 20260507043042 | 80 | 101 | 12.0 | 17.0 | 0.00 | 0.00 | 0.00 | 90 | 206.0 |
| 20260507041546 | 80 | 124 | 12.0 | 17.0 | 0.00 | 0.00 | 0.00 | 90 | 206.0 |
| 20260507040045 | 80 | 108 | 13.0 | 18.0 | 0.00 | 0.00 | 0.00 | 91 | 206.0 |
| 20260507034538 | 80 | 99 | 13.0 | 19.0 | 0.00 | 0.00 | 0.00 | 91 | 206.0 |
| 20260507033043 | 80 | 112 | 16.0 | 19.0 | 0.00 | 0.00 | 0.00 | 92 | 206.0 |
| 20260507031541 | 80 | 96 | 14.0 | 19.0 | 0.00 | 0.00 | 0.00 | 90 | 206.0 |
| 20260507030046 | 81 | 94 | 13.0 | 18.0 | 0.00 | 0.00 | 0.00 | 91 | 206.0 |
| 20260507024542 | 80 | 90 | 13.0 | 19.0 | 0.00 | 0.00 | 0.00 | 91 | 206.0 |
| 20260507023040 | 81 | 102 | 15.0 | 18.0 | 0.00 | 0.00 | 0.00 | 91 | 206.0 |
| 20260507021546 | 81 | 100 | 14.0 | 18.0 | 0.00 | 0.00 | 0.00 | 91 | 206.0 |
| 20260507020044 | 81 | 117 | 12.0 | 20.0 | 0.00 | 0.00 | 0.00 | 90 | 206.0 |
| 20260507014551 | 81 | 101 | 15.0 | 20.0 | 0.00 | 0.00 | 0.00 | 91 | 206.0 |
| 20260507013048 | 81 | 122 | 14.0 | 18.0 | 0.00 | 0.00 | 0.00 | 91 | 206.0 |
| 20260507011542 | 81 | 89 | 14.0 | 19.0 | 0.00 | 0.00 | 0.00 | 90 | 206.0 |
| 20260507010037 | 81 | 98 | 14.0 | 18.0 | 0.00 | 0.00 | 0.00 | 91 | 206.0 |
| 20260507004546 | 81 | 98 | 14.0 | 20.0 | 0.00 | 0.00 | 0.00 | 90 | 206.0 |
| 20260507003041 | 81 | 86 | 16.0 | 20.0 | 0.00 | 0.00 | 0.00 | 89 | 206.0 |
| 20260507001548 | 81 | 98 | 15.0 | 21.0 | 0.00 | 0.00 | 0.00 | 88 | 206.0 |
| 20260507000041 | 82 | 98 | 16.0 | 22.0 | 0.00 | 0.00 | 0.00 | 89 | 206.0 |
| 20260506234535 | 82 | 98 | 16.0 | 21.0 | 0.00 | 0.00 | 0.00 | 89 | 206.0 |
| 20260506233052 | 82 | 97 | 17.0 | 20.0 | 0.00 | 0.00 | 0.00 | 88 | 206.0 |